Regional Weather Roundup
Issued by NWS Goodland, KS

Home | Current Version | Previous Version | Text Only | Print | Product List | Glossary On
Versions: 1 2 3 4 5 6 7 8 9 10 11 12 13 14 15 16 17 18 19 20 21 22 23 24 25 26 27 28 29 30 31 32 33 34 35 36 37 38 39 40 41 42 43 44 45 46 47 48 49 50
000
ASUS43 KGLD 291108
RWRGLD

GOODLAND FORECAST AREA HOURLY WEATHER ROUNDUP
NATIONAL WEATHER SERVICE GOODLAND KS
500 AM MDT FRI MAY 29 2015

...OFFICIAL OBSERVATIONS...

CITY           SKY/WX    TMP DP  RH WIND       PRES   REMARKS
GOODLAND KS    PTCLDY    52  49  89 W7        30.04R
HILL CITY KS   PTCLDY    55  52  89 W7        29.96S
IMPERIAL NEB   CLOUDY    56  52  86 W6        30.03R
MCCOOK NEB     CLEAR     55  52  89 NW14      29.99R
AKRON CO       MOCLDY    48  47  96 W10       30.09S
BURLINGTON CO  MOCLDY    54  50  86 NW14      30.07R
LIMON CO       CLEAR     47  44  90 CALM      30.14R
$$

...UNOFFICIAL OBSERVATIONS...

CITY           SKY/WX    TMP DP  RH WIND       PRES   REMARKS
LENORA KS        N/A     55  32  41 MISG        N/A
NORTON KS      CLEAR     54  48  82 W9        29.93F
SHARON SPRINGS   N/A     51  48  91 MISG        N/A
KIT CARSON CO    N/A     55  49  80 MISG        N/A
$$


USA.gov is the U.S. government's official web portal to all federal, state and local government web resources and services.